LEMUR-2-CARLSANTAMARI (48959 NORAD) Tracking and Keplerian Element Data

This shows tracking and keplerian element data for the satellite.

Feedback or suggestion? Click here.




ElementValue
Catalog48959
NameLEMUR-2-CARLSANTAMARI
Epoch Orbit1389
Epoch Day268.62857845
Epoch Year2021
RAAN36.2684
Inclination97.5198
Eccentricity0.0015726
Argument of Perigee301.8965
Mean Anonmoly58.0736
Mean Motion15.14304756
Decay Rate4.935E-05
L11 48959U 21059CJ 21268.62857845 .00004935 00000-0 27239-3 0 9993
L22 48959 97.5198 36.2684 0015726 301.8965 58.0736 15.14304756 13894

Live tracking and technical data element details for LEMUR-2-CARLSANTAMARI (NORAD 48959). LEMUR-2-CARLSANTAMARI can be tracked NOW for your location showing map with azimuth and elevation plus other details from your city location.

Track the satellite on the map from your city or location and see movement details for azimuth, elevation, latitude, longitude, range, height, and movement on the map or in text.







IsCatalogInMostPopularTable: catalog: 48959, numindb: 16
Update: records affected: 1



GetName: 48959 LEMUR-2-CARLSANTAMARI

Hit Count: updated at: Sun, 26 Sep 2021 16:38:57 GMT